Flag for U.S.A. Weather past 2 weeks in Garden Grove, California, U.S.A.

Now
68 °F

Clear.


Feels Like: 68 °F
Forecast: 67 / 87 °F
Wind: No wind

Location: Fullerton Municipal Airport

Current Time: Aug 30, 2014 at 5:46:13 AM

Latest Report: Aug 30, 2014 at 4:53 AM


Visibility: 10 mi

Pressure: 29.80 "Hg

Humidity: 82%

Dew point: 62 °F

Location of Garden GroveLocation

Historic Weather in Garden Grove — Graph

°F

Garden Grove temperature yesterday

Maximum temperature yesterday: 87 °F (at 1:53 PM)
Minimum temperature yesterday: 67 °F (at 4:53 AM)
Average temperature yesterday: 76 °F

Past Weeks' High & Low Weather Summary

 TemperatureHumidityPressure
High96 °F (Aug 28, 2:53 PM)87% (Aug 18, 6:53 AM)30.01 "Hg (Aug 18, 6:53 AM)
Low66 °F (Aug 15, 3:53 AM)18% (Aug 16, 3:53 PM)29.78 "Hg (Aug 18, 4:53 PM)
Average76 °F57%29.90 "Hg
* Reported Aug 15 3:53 AM — Aug 30 3:53 AM, Garden Grove, Weather by CustomWeather, © 2014

Note: Actual official high and low records may vary slightly from our data, if they occured in-between our weather recording intervals... More about our weather records

Advertising

Garden Grove weather history for previous 24 hours

 ConditionsComfort  
Time TempWeatherWind HumidityBarometerVisibility
3:53 AM
Aug 30
69 °FClear.No wind79%29.80 "Hg10 mi
2:53 AM69 °FClear.No wind79%29.80 "Hg10 mi
1:53 AM69 °FClear.3 mph76%29.80 "Hg10 mi
12:53 AM71 °FClear.No wind73%29.81 "Hg10 mi
11:53 PM
Aug 29
71 °FClear.3 mph73%29.81 "Hg10 mi
10:53 PM73 °FClear.3 mph69%29.82 "Hg10 mi
9:53 PM73 °FClear.No wind53%29.81 "Hg10 mi
8:53 PM75 °FClear.3 mph52%29.82 "Hg10 mi
7:53 PM77 °FSunny.3 mph52%29.79 "Hg10 mi
6:53 PM81 °FSunny.5 mph45%29.78 "Hg10 mi
5:53 PM83 °FSunny.7 mph38%29.78 "Hg10 mi
4:53 PM85 °FSunny.8 mph39%29.78 "Hg10 mi
3:53 PM86 °FSunny.9 mph36%29.79 "Hg10 mi
2:53 PM86 °FSunny.9 mph39%29.81 "Hg10 mi
1:53 PM87 °FSunny.8 mph36%29.82 "Hg10 mi
11:53 AM86 °FSunny.8 mph40%29.85 "Hg10 mi
10:53 AM83 °FSunny.5 mph40%29.87 "Hg10 mi
9:53 AM79 °FSunny.3 mph48%29.87 "Hg10 mi
8:53 AM75 °FSunny.No wind58%29.87 "Hg10 mi
7:53 AM72 °FSunny.No wind64%29.87 "Hg10 mi
6:53 AM68 °FClear.No wind73%29.88 "Hg10 mi
5:53 AM67 °FClear.No wind73%29.86 "Hg10 mi
Weather by CustomWeather, © 2014

See weather overviewHow to use our weather pages